Weather History for Jefferson, NC

Change the Weather History Date:

Sunday, March 3, 2013

  Actual Average Record
Temperature  
Mean Temperature 22 °F -  
Max Temperature 26 °F 53 °F 75 °F (1976)
Min Temperature 18 °F 30 °F 2 °F (1980)
Degree Days  
Heating Degree Days 43    
Moisture  
Dew Point 11 °F    
Average Humidity 64    
Maximum Humidity 74    
Minimum Humidity 54    
Precipitation  
Precipitation 0.00 in - - ()
Sea Level Pressure  
Sea Level Pressure 29.83 in    
Wind  
Wind Speed 14 mph (NW)    
Max Wind Speed 21 mph    
Max Gust Speed 39 mph    
Visibility 8 miles    
Events Snow    
Averages and records for this station are not official NWS values.
T = Trace of Precipitation, MM = Missing Value Source: NWS Daily Summary

Daily Weather History Graph

Daily Weather History Graph

Search for Another Location

Airport:

Trip Planner

Search our weather history database for the weather conditions in past years. The results will help you decide how hot, cold, wet, or windy it might be!

Date:

Astronomy

Mar. 03, 2013 Rise Set
Actual Time 6:53 AM EST 6:22 PM EST
Civil Twilight 6:27 AM EST 6:48 PM EST
Nautical Twilight 5:57 AM EST 7:18 PM EST
Astronomical Twilight 5:27 AM EST 7:48 PM EST
Moon No Moon Rise 10:18 AM EST (3/3)
Length of Visible Light 12h 20m
Length of Day
11h 29m
Waning Gibbous, 64% of the Moon is Illuminated
Mar 3
Waning Gibbous
Mar 4
Last Quarter
Mar 11
New
Mar 19
First Quarter
Mar 27
Full

Hourly Weather History & Observations

Time (EST) Temp. Windchill Dew Point Humidity Pressure Visibility Wind Dir Wind Speed Gust Speed Precip Events Conditions
12:15 AM 20.3 °F 6.1 °F 11.8 °F 70% 29.81 in 10.0 mi NW 16.1 mph 25.3 mph N/A Snow Light Snow
12:35 AM 20.3 °F 5.7 °F 11.3 °F 68% 29.80 in 10.0 mi WNW 17.3 mph 26.5 mph N/A Snow Light Snow
12:55 AM 19.9 °F 3.9 °F 11.1 °F 69% 29.80 in 10.0 mi NW 20.7 mph 29.9 mph N/A Snow Light Snow
1:15 AM 19.9 °F 5.7 °F 12.2 °F 72% 29.80 in 7.0 mi NW 16.1 mph 23.0 mph N/A Snow Light Snow
1:35 AM 20.1 °F 7.5 °F 12.2 °F 71% 29.81 in 7.0 mi NW 12.7 mph 25.3 mph N/A Snow Light Snow
2:15 AM 19.4 °F 7.2 °F 9.9 °F 66% 29.82 in 10.0 mi NW 11.5 mph 19.6 mph N/A Snow Light Snow
2:35 AM 19.4 °F 3.6 °F 8.6 °F 63% 29.80 in 10.0 mi NW 19.6 mph 26.5 mph N/A   Overcast
2:55 AM 19.4 °F 6.0 °F 10.0 °F 67% 29.80 in 10.0 mi NW 13.8 mph 20.7 mph N/A Snow Light Snow
3:15 AM 19.4 °F 9.5 °F 11.3 °F 71% 29.80 in 7.0 mi NW 8.1 mph - N/A Snow Light Snow
3:55 AM 19.9 °F 7.3 °F 11.3 °F 69% 29.79 in 10.0 mi WNW 12.7 mph 25.3 mph N/A Snow Light Snow
4:15 AM 19.8 °F 8.3 °F 11.7 °F 71% 29.79 in 5.0 mi NNW 10.4 mph 25.3 mph N/A Snow Light Snow
4:35 AM 19.4 °F 5.0 °F 12.2 °F 74% 29.78 in 4.0 mi NNW 16.1 mph 32.2 mph N/A Snow Light Snow
4:55 AM 18.9 °F 2.5 °F 10.4 °F 70% 29.78 in 4.0 mi NW 20.7 mph 29.9 mph N/A Snow Light Snow
5:15 AM 18.9 °F 3.3 °F 8.2 °F 63% 29.79 in 10.0 mi NW 18.4 mph 32.2 mph N/A Snow Light Snow
5:35 AM 18.5 °F 3.3 °F 8.6 °F 65% 29.79 in 10.0 mi NW 17.3 mph 26.5 mph N/A Snow Light Snow
5:55 AM 18.5 °F 3.8 °F 9.5 °F 68% 29.79 in 5.0 mi NW 16.1 mph 26.5 mph N/A Snow Light Snow
6:15 AM 18.5 °F 6.8 °F 10.0 °F 70% 29.80 in 7.0 mi WNW 10.4 mph 25.3 mph N/A Snow Light Snow
6:55 AM 18.5 °F 6.1 °F 10.4 °F 71% 29.81 in 7.0 mi WNW 11.5 mph 17.3 mph N/A Snow Light Snow
7:15 AM 18.9 °F 6.5 °F 9.9 °F 68% 29.81 in 5.0 mi NW 11.5 mph 23.0 mph N/A Snow Light Snow
7:35 AM 18.9 °F 6.5 °F 10.0 °F 69% 29.82 in 5.0 mi NW 11.5 mph - N/A Snow Light Snow
8:15 AM 19.4 °F 7.9 °F 10.4 °F 68% 29.82 in 4.0 mi NW 10.4 mph 24.2 mph N/A Snow Light Snow
8:35 AM 19.0 °F 5.0 °F 10.9 °F 71% 29.83 in 3.0 mi WNW 15.0 mph 21.9 mph N/A Snow Light Snow
8:55 AM 18.7 °F 5.1 °F 10.4 °F 70% 29.83 in 2.5 mi NW 13.8 mph 20.7 mph N/A Snow Light Snow
9:15 AM 19.9 °F 6.7 °F 9.3 °F 63% 29.83 in 7.0 mi NW 13.8 mph 25.3 mph N/A Snow Light Snow
9:35 AM 19.9 °F 8.6 °F 10.0 °F 65% 29.84 in 5.0 mi NW 10.4 mph 24.2 mph N/A Snow Light Snow
9:55 AM 20.8 °F 9.0 °F 10.0 °F 63% 29.84 in 5.0 mi NW 11.5 mph 23.0 mph N/A Snow Light Snow
10:15 AM 21.4 °F 10.4 °F 10.6 °F 63% 29.83 in 7.0 mi NNW 10.4 mph 20.7 mph N/A Snow Light Snow
10:35 AM 21.2 °F 8.9 °F 10.4 °F 63% 29.83 in 10.0 mi NW 12.7 mph 25.3 mph N/A Snow Light Snow
10:55 AM 21.7 °F 12.3 °F 10.9 °F 63% 29.84 in 10.0 mi NNW 8.1 mph 20.7 mph N/A Snow Light Snow
11:15 AM 21.7 °F 10.2 °F 11.5 °F 65% 29.84 in 10.0 mi NNW 11.5 mph 21.9 mph N/A Snow Light Snow
11:35 AM 22.1 °F 10.6 °F 12.2 °F 66% 29.84 in 5.0 mi NW 11.5 mph 25.3 mph N/A Snow Light Snow
11:55 AM 22.1 °F 9.5 °F 11.5 °F 64% 29.83 in 7.0 mi NW 13.8 mph 19.6 mph N/A Snow Light Snow
12:15 PM 23.4 °F 15.2 °F 12.0 °F 62% 29.83 in 10.0 mi NW 6.9 mph 24.2 mph N/A Snow Light Snow
12:35 PM 23.2 °F 9.8 °F 10.8 °F 59% 29.82 in 10.0 mi West 16.1 mph 25.3 mph N/A Snow Light Snow
12:55 PM 24.1 °F 12.0 °F 11.3 °F 58% 29.82 in 7.0 mi NW 13.8 mph 26.5 mph N/A Snow Light Snow
1:15 PM 23.9 °F 12.3 °F 12.7 °F 62% 29.82 in 5.0 mi WNW 12.7 mph 23.0 mph N/A Snow Light Snow
1:35 PM 23.9 °F 10.8 °F 12.2 °F 61% 29.82 in 5.0 mi WNW 16.1 mph 23.0 mph N/A Snow Light Snow
1:55 PM 24.3 °F 14.6 °F 11.3 °F 58% 29.82 in 10.0 mi NW 9.2 mph 18.4 mph N/A   Overcast
2:15 PM 24.4 °F 13.5 °F 10.9 °F 57% 29.81 in 10.0 mi NW 11.5 mph 23.0 mph N/A Snow Light Snow
2:35 PM 24.8 °F 13.4 °F 11.3 °F 57% 29.81 in 10.0 mi NNW 12.7 mph 21.9 mph N/A Snow Light Snow
2:55 PM 26.4 °F 16.0 °F 11.8 °F 54% 29.81 in 10.0 mi WNW 11.5 mph 16.1 mph N/A   Overcast
3:15 PM 26.1 °F 16.8 °F 12.0 °F 55% 29.81 in 10.0 mi NW 9.2 mph 20.7 mph N/A Snow Light Snow
3:35 PM 26.2 °F 16.4 °F 12.7 °F 57% 29.81 in 10.0 mi NW 10.4 mph 21.9 mph N/A Snow Light Snow
3:55 PM 25.9 °F 13.3 °F 13.5 °F 59% 29.81 in 7.0 mi WNW 16.1 mph 28.8 mph N/A Snow Light Snow
4:15 PM 26.1 °F 14.5 °F 12.4 °F 56% 29.81 in 7.0 mi WNW 13.8 mph 28.8 mph N/A Snow Light Snow
4:35 PM 24.8 °F 14.0 °F 12.4 °F 59% 29.82 in 10.0 mi WNW 11.5 mph 29.9 mph N/A Snow Light Snow
4:55 PM 24.4 °F 10.6 °F 12.0 °F 59% 29.82 in 10.0 mi WNW 18.4 mph 27.6 mph N/A Snow Light Snow
5:15 PM 24.1 °F 11.5 °F 12.7 °F 62% 29.82 in 10.0 mi WNW 15.0 mph 29.9 mph N/A Snow Light Snow
5:55 PM 23.7 °F 9.7 °F 12.9 °F 63% 29.83 in 10.0 mi NNW 18.4 mph 24.2 mph N/A Snow Light Snow
6:15 PM 23.7 °F 11.0 °F 12.2 °F 61% 29.84 in 10.0 mi NW 15.0 mph 21.9 mph N/A Snow Light Snow
6:35 PM 23.5 °F 13.7 °F 12.7 °F 63% 29.84 in 10.0 mi NW 9.2 mph 18.4 mph N/A Snow Light Snow
6:55 PM 23.0 °F 14.7 °F 13.1 °F 66% 29.84 in 10.0 mi NW 6.9 mph 23.0 mph N/A Snow Light Snow
7:15 PM 22.6 °F 11.3 °F 13.1 °F 67% 29.85 in 10.0 mi NNW 11.5 mph 18.4 mph N/A Snow Light Snow
7:35 PM 22.3 °F 10.8 °F 12.9 °F 67% 29.86 in 10.0 mi NNW 11.5 mph 18.4 mph N/A Snow Light Snow
7:55 PM 22.1 °F 10.0 °F 12.2 °F 66% 29.86 in 10.0 mi NW 12.7 mph 20.7 mph N/A Snow Light Snow
8:15 PM 22.1 °F 8.0 °F 11.8 °F 65% 29.86 in 10.0 mi NW 17.3 mph 26.5 mph N/A Snow Light Snow
8:35 PM 21.9 °F 6.9 °F 11.7 °F 65% 29.86 in 10.0 mi NW 19.6 mph 28.8 mph N/A Snow Light Snow
9:15 PM 21.2 °F 10.1 °F 9.3 °F 60% 29.87 in 10.0 mi NW 10.4 mph 28.8 mph N/A Snow Light Snow
9:35 PM 21.2 °F 6.8 °F 8.6 °F 58% 29.87 in 10.0 mi NW 17.3 mph 39.1 mph N/A Snow Light Snow
9:55 PM 21.2 °F 8.3 °F 10.0 °F 62% 29.87 in 10.0 mi NW 13.8 mph 25.3 mph N/A Snow Light Snow
10:15 PM 21.2 °F 10.9 °F 11.1 °F 65% 29.87 in 10.0 mi NW 9.2 mph 21.9 mph N/A Snow Light Snow
10:35 PM 21.4 °F 9.1 °F 11.5 °F 66% 29.87 in 7.0 mi NW 12.7 mph 31.1 mph N/A Snow Light Snow
10:55 PM 21.2 °F 6.8 °F 11.3 °F 66% 29.87 in 7.0 mi NNW 17.3 mph 28.8 mph N/A Snow Light Snow
11:15 PM 21.2 °F 8.9 °F 10.8 °F 64% 29.86 in 7.0 mi NW 12.7 mph 28.8 mph N/A Snow Light Snow
11:35 PM 21.2 °F 6.8 °F 10.4 °F 63% 29.86 in 10.0 mi NW 17.3 mph 35.7 mph N/A Snow Light Snow
11:55 PM 20.8 °F 5.5 °F 9.5 °F 62% 29.85 in 10.0 mi WNW 19.6 mph 33.4 mph N/A Snow Light Snow